This is the latest recevied weather packets stored in our database for station/object WC4PEM. If no packets are shown the sender has not sent any weather packets the latest 1 day(s).
| Time | Temp. | Humidity | Pressure | Rain* | Wind** | Luminosity | Snow |
|---|---|---|---|---|---|---|---|
| 1777990468 | 26.67° C | 65% | 1015.2 hPa | 0 mm | 4.47 m/s, 90° | - | - |
| 1777990168 | 26.67° C | 66% | 1015.2 hPa | 0 mm | 4.47 m/s, 108° | - | - |
| 1777989992 | 26.11° C | 67% | 1015.2 hPa | 0 mm | 4.47 m/s, 111° | - | - |
| 1777989868 | 26.11° C | 67% | 1015.2 hPa | 0 mm | 4.47 m/s, 111° | - | - |
| 1777989571 | 25.56° C | 69% | 1015.2 hPa | 0 mm | 5.36 m/s, 88° | - | - |
| 1777989268 | 25.56° C | 69% | 1015.3 hPa | 0 mm | 5.81 m/s, 111° | - | - |
| 1777988968 | 25.56° C | 69% | 1015.4 hPa | 0 mm | 5.36 m/s, 74° | - | - |
| 1777988668 | 25.56° C | 70% | 1015.4 hPa | 0 mm | 5.36 m/s, 98° | - | - |
| 1777988368 | 25.56° C | 70% | 1015.4 hPa | 0 mm | 4.92 m/s, 107° | - | - |
| 1777988068 | 25.56° C | 70% | 1015.2 hPa | 0 mm | 4.92 m/s, 117° | - | - |
| 1777987768 | 25° C | 71% | 1015.1 hPa | 0 mm | 4.92 m/s, 123° | - | - |
| 1777987590 | 25° C | 71% | 1015.2 hPa | 0 mm | 4.92 m/s, 120° | - | - |
| 1777987468 | 25° C | 71% | 1015.2 hPa | 0 mm | 4.92 m/s, 120° | - | - |
| 1777987168 | 25° C | 72% | 1015.2 hPa | 0 mm | 4.47 m/s, 77° | - | - |
| 1777986868 | 25° C | 73% | 1015.3 hPa | 0 mm | 4.02 m/s, 97° | - | - |
| 1777986758 | 24.44° C | 74% | 1015.2 hPa | 0 mm | 4.02 m/s, 98° | - | - |
| 1777986568 | 24.44° C | 74% | 1015.2 hPa | 0 mm | 4.02 m/s, 98° | - | - |
| 1777986268 | 23.89° C | 75% | 1015.2 hPa | 0 mm | 4.02 m/s, 76° | - | - |
| 1777985968 | 23.89° C | 76% | 1015.2 hPa | 0 mm | 4.47 m/s, 101° | - | - |
| 1777985668 | 23.89° C | 76% | 1015.2 hPa | 0 mm | 4.02 m/s, 104° | - | - |
| 1777985368 | 23.33° C | 77% | 1015.1 hPa | 0 mm | 4.02 m/s, 87° | - | - |
| 1777985281 | 23.33° C | 78% | 1015.2 hPa | 0 mm | 3.58 m/s, 61° | - | - |
| 1777985068 | 23.33° C | 78% | 1015.2 hPa | 0 mm | 3.58 m/s, 61° | - | - |
| 1777984768 | 22.78° C | 80% | 1015.2 hPa | 0 mm | 2.68 m/s, 102° | - | - |
| 1777984468 | 22.22° C | 81% | 1015.2 hPa | 0 mm | 2.68 m/s, 77° | - | - |
* Rain latest hour (hover to see other rain measurements)
** Current wind speed in m/s (hover to see current wind gust speed)